Provo, UT

4:42 PM MST on November 22, 2019 (GMT -0700)
Provo Municipal

Weather History for KPVU - September, 2019

Change the Weather History Date:

Friday, September 6, 2019

  Actual Average Record
Temperature  
Mean Temperature 74 °F -  
Max Temperature 84 °F 79 °F 93 °F (2013)
Min Temperature 64 °F 51 °F 39 °F (2010)
Cooling Degree Days 9    
Growing Degree Days 24 (Base 50)    
Moisture  
Dew Point 58 °F    
Average Humidity 60    
Maximum Humidity 78    
Minimum Humidity 33    
Precipitation  
Precipitation 0.00 in - - ()
Sea Level Pressure  
Sea Level Pressure 30.08 in    
Wind  
Wind Speed 7 mph (North)    
Max Wind Speed 17 mph    
Max Gust Speed -    
Visibility 10 miles    
Events Rain , Thunderstorm    
Averages and records for this station are not official NWS values.
T = Trace of Precipitation, MM = Missing Value Source: NWS Daily Summary

Daily Weather History Graph

Daily Weather History Graph

Search for Another Location

Airport or City:

Astronomy

Sep. 06, 2019 Rise Set
Actual Time 6:59 AM MDT 7:50 PM MDT
Civil Twilight 6:31 AM MDT 8:18 PM MDT
Nautical Twilight 5:58 AM MDT 8:51 PM MDT
Astronomical Twilight 5:24 AM MDT 9:24 PM MDT
Moon 3:11 PM MDT (9/6) 12:10 AM MDT (9/6)
Length of Visible Light 13h 46m
Length of Day
12h 51m
First Quarter, 56% of the Moon is Illuminated
Sep 6
First Quarter
Sep 13
Full
Sep 21
Last Quarter
Sep 28
New
Oct 5
First Quarter

Hourly Weather History & Observations

Time (MDT) Temp. Heat Index Dew Point Humidity Pressure Visibility Wind Dir Wind Speed Gust Speed Precip Events Conditions
12:56 AM 71.1 °F - 57.9 °F 63% 30.06 in 10.0 mi North - - N/A   Clear
1:56 AM 69.1 °F - 61.0 °F 75% 30.06 in 10.0 mi North - - N/A   Partly Cloudy
2:56 AM 66.9 °F - 57.9 °F 73% 30.06 in 10.0 mi NE 4.6 mph - N/A   Clear
3:56 AM 66.9 °F - 59.0 °F 76% 30.06 in 10.0 mi ESE 4.6 mph - N/A   Clear
4:56 AM 64.0 °F - 57.0 °F 78% 30.06 in 10.0 mi Calm Calm - N/A   Clear
5:56 AM 64.9 °F - 57.0 °F 75% 30.06 in 10.0 mi SSE 4.6 mph - N/A   Clear
6:56 AM 66.0 °F - 55.9 °F 70% 30.09 in 10.0 mi East 5.8 mph - N/A   Scattered Clouds
7:56 AM 66.9 °F - 57.0 °F 70% 30.12 in 10.0 mi East 6.9 mph - 0.00 in Rain Light Rain
8:10 AM 68.0 °F - 55.4 °F 64% 30.25 in 10.0 mi NE 10.4 mph - 0.00 in Rain , Thunderstorm Light Thunderstorms and Rain
8:48 AM 68.0 °F - 57.2 °F 68% 30.30 in 10.0 mi South 8.1 mph - 0.00 in   Mostly Cloudy
8:56 AM 69.1 °F - 57.0 °F 65% 30.16 in 10.0 mi SSW 6.9 mph - 0.00 in   Mostly Cloudy
9:56 AM 69.1 °F - 59.0 °F 70% 30.12 in 10.0 mi SE 3.5 mph - 0.00 in   Mostly Cloudy
10:56 AM 71.1 °F - 57.0 °F 61% 30.11 in 10.0 mi SSE 10.4 mph - N/A   Mostly Cloudy
11:56 AM 73.9 °F - 57.0 °F 55% 30.09 in 10.0 mi NW 11.5 mph - N/A   Mostly Cloudy
12:56 PM 79.0 °F - 57.9 °F 48% 30.07 in 10.0 mi North 9.2 mph - N/A   Mostly Cloudy
1:56 PM 80.1 °F 80.2 °F 55.9 °F 43% 30.05 in 10.0 mi NNW 6.9 mph - N/A   Mostly Cloudy
2:40 PM 82.4 °F 81.4 °F 53.6 °F 37% 30.19 in 10.0 mi Variable 3.5 mph - N/A   Scattered Clouds
2:56 PM 84.0 °F - 52.0 °F 33% 30.02 in 10.0 mi NNE 5.8 mph - N/A   Scattered Clouds
3:56 PM 84.0 °F 82.9 °F 55.0 °F 37% 30.00 in 10.0 mi WNW 11.5 mph - N/A   Partly Cloudy
4:56 PM 82.9 °F 83.7 °F 62.1 °F 49% 30.00 in 10.0 mi WNW 11.5 mph - N/A   Mostly Cloudy
5:56 PM 80.1 °F 81.1 °F 61.0 °F 52% 30.00 in 10.0 mi NNW 11.5 mph - N/A   Mostly Cloudy
6:56 PM 81.0 °F 81.9 °F 62.1 °F 52% 30.00 in 10.0 mi WNW 10.4 mph - N/A   Mostly Cloudy
7:56 PM 75.9 °F - 64.0 °F 67% 30.01 in 10.0 mi NW 8.1 mph - N/A   Scattered Clouds
8:56 PM 75.9 °F - 59.0 °F 56% 30.03 in 10.0 mi NNW 17.3 mph - N/A   Scattered Clouds
9:56 PM 73.9 °F - 60.1 °F 62% 30.03 in 10.0 mi NNW 11.5 mph - N/A   Partly Cloudy
10:56 PM 73.9 °F - 57.9 °F 57% 30.03 in 10.0 mi NNW 9.2 mph - N/A   Clear
11:56 PM 71.1 °F - 57.0 °F 61% 30.03 in 10.0 mi NE 3.5 mph - N/A   Scattered Clouds